Location: Fort Collins
(40.5850°N, 105.0840°W)
Time: 07:20:12
(UTC-07:00)

Cosmos 2297 Rocket - Visible Passes

Search period start: 12 December 2017 00:00
Search period end: 22 December 2017 00:00
Orbit: 840 x 843 km, 71.0° (Epoch: 11 December)

Date Brightness Start Highest point End Pass type
(mag) Time Alt. Az. Time Alt. Az. Time Alt. Az.
12 Dec 2.1 18:20:42 10° NNW 18:26:20 69° ENE 18:31:58 10° SSE visible
12 Dec 4.8 20:06:27 10° WNW 20:09:43 16° W 20:12:58 10° SW visible
13 Dec 2.1 18:05:36 10° NNW 18:11:14 65° ENE 18:16:50 10° SSE visible
13 Dec 4.8 19:51:12 10° WNW 19:54:39 17° W 19:58:07 10° SW visible
14 Dec 2.2 17:50:31 10° NNW 17:56:08 62° ENE 18:01:42 10° SE visible
14 Dec 4.8 19:35:56 10° WNW 19:39:35 18° W 19:43:14 10° SW visible
15 Dec 2.2 17:35:25 10° NNW 17:41:01 58° ENE 17:46:34 10° SE visible
15 Dec 4.7 19:20:41 10° WNW 19:24:31 19° W 19:28:20 10° SW visible
16 Dec 5.1 06:44:48 10° SE 06:48:12 17° E 06:51:38 10° ENE visible
16 Dec 2.3 17:20:20 10° NNW 17:25:54 55° ENE 17:31:25 10° SE visible
16 Dec 4.7 19:05:28 10° NW 19:09:26 20° W 19:13:25 10° SW visible
17 Dec 5.2 06:29:56 10° SE 06:33:08 16° E 06:36:21 10° ENE visible
17 Dec 2.3 17:05:15 10° NNW 17:10:46 52° ENE 17:16:16 10° SE visible
17 Dec 4.7 18:50:15 10° NW 18:54:23 21° W 18:58:30 10° SSW visible
18 Dec 5.3 06:15:06 10° SE 06:18:04 15° E 06:21:03 10° ENE visible
18 Dec 4.7 18:35:02 10° NW 18:39:18 22° W 18:43:34 10° SSW visible
19 Dec 5.4 06:00:18 10° SE 06:03:01 14° E 06:05:43 10° ENE visible
19 Dec 4.6 18:19:50 10° NW 18:24:14 24° WSW 18:28:37 10° SSW visible
20 Dec 5.4 05:45:32 10° ESE 05:47:57 13° E 05:50:21 10° ENE visible
20 Dec 4.6 18:04:38 10° NW 18:09:10 25° WSW 18:13:40 10° SSW visible
21 Dec 5.5 05:30:50 10° ESE 05:32:53 12° E 05:34:56 10° ENE visible
21 Dec 4.5 17:49:27 10° NW 17:54:05 26° WSW 17:58:41 10° SSW visible
